Date String (YYYY-MM-DD hh:mm:ss) UTC,Instrument flags,Ambient pressure (hPa),Sample flow (lpm),Bypass flow (lpm),Sample temperature (°C),Ambient temperature (°C),ASC tube jacket temperature (°C),LED temperature (°C),Box temperature (°C),Sample RH (%),Span deviation,Mass concentration (μg/m³),Mass concentration (μg/m³),Mass concentration (μg/m³)
DateTimeUTC,F1_M11,P_M11,Q1_M11,Q2_M11,T1_M11,T2_M11,T3_M11,T4_M11,T5_M11,U1_M11,ZSPAN_M11,X0_M11,X2_M11,X1_M11
2022-02-09 21:00:00,,0825.3,4.99,0.00,27.4,26.6,00.0,36.3,29.3,10.5,0000.0,0011.81,0003.79,0003.23
2022-02-09 21:01:00,,0825.3,4.99,0.00,27.4,26.6,00.0,36.4,29.2,10.4,0000.0,0011.37,0003.78,0003.23
2022-02-09 21:02:00,,0825.3,5.00,0.00,27.4,26.7,00.0,36.4,29.3,10.3,0000.0,0010.53,0003.77,0003.25
2022-02-09 21:03:00,,0825.3,5.00,0.00,27.5,26.7,00.0,36.4,29.3,10.3,0000.0,0009.71,0003.78,0003.27
2022-02-09 21:04:00,,0825.3,4.99,0.00,27.5,26.7,00.0,36.4,29.3,10.4,0000.0,0010.34,0003.82,0003.28
2022-02-09 21:05:00,,0825.3,5.02,0.00,27.5,26.7,00.0,36.4,29.3,10.5,0000.0,0010.79,0003.84,0003.28
2022-02-09 21:06:00,,0825.3,4.99,0.00,27.5,26.7,00.0,36.4,29.3,10.4,0000.0,0011.23,0003.85,0003.29
2022-02-09 21:07:00,,0825.4,5.02,0.00,27.5,26.7,00.0,36.4,29.3,10.2,0000.0,0010.97,0003.82,0003.28
2022-02-09 21:08:00,,0825.4,4.99,0.00,27.5,26.7,00.0,36.4,29.3,10.2,0000.0,0010.89,0003.82,0003.28
2022-02-09 21:09:00,,0825.4,4.99,0.00,27.5,26.8,00.0,36.4,29.4,10.3,0000.0,0010.82,0003.86,0003.29
2022-02-09 21:10:00,,0825.4,5.01,0.00,27.5,26.8,00.0,36.4,29.4,10.2,0000.0,0010.54,0003.90,0003.29
2022-02-09 21:11:00,,0825.4,4.98,0.00,27.5,26.8,00.0,36.5,29.4,10.2,0000.0,0009.58,0003.88,0003.30
2022-02-09 21:12:00,,0825.5,5.01,0.00,27.6,26.8,00.0,36.5,29.4,10.1,0000.0,0010.05,0003.86,0003.30
2022-02-09 21:13:00,,0825.4,4.99,0.00,27.6,26.8,00.0,36.5,29.4,10.2,0000.0,0010.48,0003.87,0003.30
2022-02-09 21:14:00,,0825.4,5.01,0.00,27.6,26.8,00.0,36.5,29.5,10.3,0000.0,0010.36,0003.87,0003.30
2022-02-09 21:15:00,,0825.4,4.99,0.00,27.6,26.8,00.0,36.5,29.4,10.3,0000.0,0009.84,0003.86,0003.30
2022-02-09 21:16:00,,0825.3,5.01,0.00,27.6,26.8,00.0,36.5,29.4,10.3,0000.0,0010.24,0003.90,0003.31
2022-02-09 21:17:00,,0825.4,5.00,0.00,27.6,26.9,00.0,36.5,29.4,10.1,0000.0,0010.08,0003.88,0003.31
2022-02-09 21:18:00,,0825.3,4.99,0.00,27.6,26.9,00.0,36.5,29.5,10.1,0000.0,0010.44,0003.87,0003.32
2022-02-09 21:19:00,,0825.4,5.01,0.00,27.6,26.9,00.0,36.6,29.5,10.0,0000.0,0010.43,0003.88,0003.33
2022-02-09 21:20:00,,0825.4,5.00,0.00,27.7,26.9,00.0,36.6,29.5,10.0,0000.0,0010.15,0003.88,0003.33
2022-02-09 21:21:00,,0825.4,5.00,0.00,27.7,26.9,00.0,36.6,29.5,09.9,0000.0,0010.73,0003.88,0003.34
2022-02-09 21:22:00,,0825.5,5.00,0.00,27.7,26.9,00.0,36.6,29.5,10.0,0000.0,0011.07,0003.89,0003.34
2022-02-09 21:23:00,,0825.5,4.99,0.00,27.7,26.9,00.0,36.6,29.5,10.2,0000.0,0011.95,0003.92,0003.35
2022-02-09 21:24:00,,0825.5,5.00,0.00,27.7,26.9,00.0,36.6,29.5,10.2,0000.0,0011.65,0003.96,0003.36
2022-02-09 21:25:00,,0825.5,5.00,0.00,27.7,26.9,00.0,36.6,29.5,10.1,0000.0,0012.26,0003.95,0003.37
2022-02-09 21:26:00,,0825.4,5.00,0.00,27.7,27.0,00.0,36.6,29.5,10.1,0000.0,0012.19,0003.93,0003.38
2022-02-09 21:27:00,,0825.5,5.02,0.00,27.7,27.0,00.0,36.7,29.6,10.0,0000.0,0012.30,0003.94,0003.38
2022-02-09 21:28:00,,0825.5,5.00,0.00,27.7,27.0,00.0,36.7,29.6,10.1,0000.0,0011.76,0003.97,0003.39
2022-02-09 21:29:00,,0825.4,4.99,0.00,27.7,27.0,00.0,36.7,29.6,10.1,0000.0,0011.71,0004.03,0003.40
2022-02-09 21:30:00,,0825.4,5.01,0.00,27.8,27.0,00.0,36.7,29.6,10.4,0000.0,0011.78,0004.04,0003.40
2022-02-09 21:31:00,,0825.4,4.99,0.00,27.8,27.0,00.0,36.7,29.6,10.3,0000.0,0011.82,0004.02,0003.40
2022-02-09 21:32:00,,0825.5,5.01,0.00,27.8,27.0,00.0,36.7,29.6,10.2,0000.0,0011.62,0003.99,0003.40
2022-02-09 21:33:00,,0825.5,4.99,0.00,27.8,27.0,00.0,36.7,29.6,10.1,0000.0,0011.50,0003.99,0003.40
2022-02-09 21:34:00,,0825.4,5.01,0.00,27.8,27.0,00.0,36.7,29.6,10.0,0000.0,0011.44,0004.04,0003.41
2022-02-09 21:35:00,,0825.5,4.99,0.00,27.8,27.0,00.0,36.7,29.6,10.0,0000.0,0011.64,0004.03,0003.40
2022-02-09 21:36:00,,0825.5,5.01,0.00,27.8,27.0,00.0,36.7,29.7,10.1,0000.0,0010.93,0004.02,0003.40
2022-02-09 21:37:00,,0825.5,4.99,0.00,27.8,27.1,00.0,36.7,29.7,10.1,0000.0,0011.02,0004.02,0003.40
2022-02-09 21:38:00,,0825.5,5.02,0.00,27.8,27.1,00.0,36.8,29.7,10.1,0000.0,0010.85,0004.00,0003.41
2022-02-09 21:39:00,,0825.5,4.99,0.00,27.8,27.1,00.0,36.8,29.7,10.1,0000.0,0011.69,0004.02,0003.42
2022-02-09 21:40:00,,0825.5,4.99,0.00,27.8,27.1,00.0,36.8,29.7,10.1,0000.0,0011.95,0004.05,0003.43
2022-02-09 21:41:00,,0825.6,5.00,0.00,27.9,27.1,00.0,36.8,29.7,10.1,0000.0,0011.94,0004.07,0003.43
2022-02-09 21:42:00,,0825.5,4.98,0.00,27.9,27.1,00.0,36.8,29.7,10.1,0000.0,0011.90,0004.08,0003.43
2022-02-09 21:43:00,,0825.5,5.01,0.00,27.9,27.1,00.0,36.8,29.7,10.1,0000.0,0011.74,0004.12,0003.44
2022-02-09 21:44:00,,0825.5,4.99,0.00,27.9,27.1,00.0,36.8,29.7,10.2,0000.0,0012.26,0004.14,0003.44
2022-02-09 21:45:00,,0825.5,5.02,0.00,27.9,27.1,00.0,36.8,29.7,10.2,0000.0,0011.59,0004.11,0003.45
2022-02-09 21:46:00,,0825.5,4.98,0.00,27.8,27.0,00.0,36.8,29.7,10.2,0000.0,0011.56,0004.15,0003.47
2022-02-09 21:47:00,,0825.6,5.01,0.00,27.8,27.0,00.0,36.8,29.7,10.2,0000.0,0011.58,0004.18,0003.48
2022-02-09 21:48:00,,0825.6,5.01,0.00,27.8,27.0,00.0,36.8,29.6,10.1,0000.0,0011.68,0004.22,0003.49
2022-02-09 21:49:00,,0825.6,4.99,0.00,27.8,27.0,00.0,36.8,29.6,10.2,0000.0,0012.05,0004.24,0003.50
2022-02-09 21:50:00,,0825.6,5.01,0.00,27.8,27.0,00.0,36.8,29.7,10.1,0000.0,0011.17,0004.23,0003.51
2022-02-09 21:51:00,,0825.6,4.99,0.00,27.8,27.1,00.0,36.8,29.7,10.3,0000.0,0010.60,0004.19,0003.51
2022-02-09 21:52:00,,0825.6,5.00,0.00,27.8,27.1,00.0,36.8,29.7,10.2,0000.0,0010.55,0004.16,0003.53
2022-02-09 21:53:00,,0825.6,5.01,0.00,27.8,27.1,00.0,36.8,29.7,10.3,0000.0,0010.39,0004.14,0003.55
2022-02-09 21:54:00,,0825.7,4.99,0.00,27.9,27.1,00.0,36.8,29.7,10.1,0000.0,0010.15,0004.13,0003.56
2022-02-09 21:55:00,,0825.7,5.02,0.00,27.9,27.1,00.0,36.8,29.7,10.2,0000.0,0009.64,0004.14,0003.59
2022-02-09 21:56:00,,0825.7,5.01,0.00,27.9,27.1,00.0,36.8,29.7,10.0,0000.0,0009.58,0004.12,0003.60
2022-02-09 21:57:00,,0825.8,5.00,0.00,27.9,27.1,00.0,36.8,29.8,10.0,0000.0,0009.33,0004.09,0003.59
2022-02-09 21:58:00,,0825.7,4.99,0.00,27.9,27.1,00.0,36.8,29.8,10.1,0000.0,0010.12,0004.09,0003.60
2022-02-09 21:59:00,,0825.7,5.01,0.00,27.9,27.1,00.0,36.8,29.8,10.1,0000.0,0010.66,0004.08,0003.60
